Time,TemperatureF,DewpointF,PressureIn,WindDirection,WindDirectionDegrees,WindSpeedMPH,WindSpeedGustMPH,Humidity,HourlyPrecipIn,Conditions,Clouds,dailyrainin,SoftwareType,DateUTC
2013-02-02 00:03:00,22.0,7.0,-100.00,WSW,250,4.0,11.0,53,-99.99,,,-99.99,,2013-02-02 05:03:00,
2013-02-02 00:12:00,22.0,7.0,-100.00,WSW,240,5.0,17.0,52,-99.99,,,-99.99,,2013-02-02 05:12:00,
2013-02-02 00:22:00,22.0,7.0,-100.00,WSW,240,5.0,17.0,52,-99.99,,,-99.99,,2013-02-02 05:22:00,
2013-02-02 00:33:00,22.0,6.0,-100.00,WSW,250,6.0,13.0,50,-99.99,,,-99.99,,2013-02-02 05:33:00,
2013-02-02 00:42:00,22.0,6.0,-100.00,WNW,295,3.0,12.0,49,-99.99,,,-99.99,,2013-02-02 05:42:00,
2013-02-02 00:52:00,22.0,6.0,-100.00,WNW,295,3.0,12.0,49,-99.99,,,-99.99,,2013-02-02 05:52:00,
2013-02-02 01:02:00,22.0,5.0,-100.00,WNW,290,7.0,12.0,48,-99.99,,,-99.99,,2013-02-02 06:02:00,
2013-02-02 01:12:00,21.0,5.0,-100.00,SW,230,5.0,9.0,48,-99.99,,,-99.99,,2013-02-02 06:12:00,
2013-02-02 01:22:00,21.0,5.0,-100.00,SW,230,5.0,9.0,48,-99.99,,,-99.99,,2013-02-02 06:22:00,
2013-02-02 01:32:00,21.0,4.0,-100.00,SSW,205,3.0,10.0,48,-99.99,,,-99.99,,2013-02-02 06:32:00,
2013-02-02 01:42:00,21.0,4.0,-100.00,West,265,4.0,12.0,48,-99.99,,,-99.99,,2013-02-02 06:42:00,
2013-02-02 01:52:00,21.0,4.0,-100.00,West,265,4.0,12.0,48,-99.99,,,-99.99,,2013-02-02 06:52:00,
2013-02-02 02:02:00,21.0,4.0,-100.00,WSW,240,5.0,11.0,48,-99.99,,,-99.99,,2013-02-02 07:02:00,
2013-02-02 02:12:00,21.0,4.0,-100.00,SW,225,5.0,15.0,48,-99.99,,,-99.99,,2013-02-02 07:12:00,
2013-02-02 02:21:00,21.0,4.0,-100.00,SW,225,5.0,15.0,48,-99.99,,,-99.99,,2013-02-02 07:21:00,
2013-02-02 02:32:00,20.0,4.0,-100.00,SW,230,3.0,13.0,48,-99.99,,,-99.99,,2013-02-02 07:32:00,
2013-02-02 02:42:00,20.0,4.0,-100.00,SW,235,8.0,14.0,48,-99.99,,,-99.99,,2013-02-02 07:42:00,
2013-02-02 02:51:00,20.0,4.0,-100.00,SW,235,8.0,14.0,48,-99.99,,,-99.99,,2013-02-02 07:51:00,
2013-02-02 03:01:00,20.0,3.0,-100.00,WNW,295,7.0,14.0,48,-99.99,,,-99.99,,2013-02-02 08:01:00,
2013-02-02 03:11:00,19.0,3.0,-100.00,West,270,5.0,13.0,48,-99.99,,,-99.99,,2013-02-02 08:11:00,
2013-02-02 03:21:00,19.0,3.0,-100.00,West,270,5.0,13.0,48,-99.99,,,-99.99,,2013-02-02 08:21:00,
2013-02-02 03:32:00,19.0,3.0,-100.00,West,260,6.0,12.0,49,-99.99,,,-99.99,,2013-02-02 08:32:00,
2013-02-02 03:42:00,19.0,3.0,-100.00,West,265,4.0,14.0,49,-99.99,,,-99.99,,2013-02-02 08:42:00,
2013-02-02 03:52:00,19.0,3.0,-100.00,West,265,4.0,14.0,49,-99.99,,,-99.99,,2013-02-02 08:52:00,
2013-02-02 04:02:00,19.0,3.0,-100.00,SW,215,4.0,13.0,49,-99.99,,,-99.99,,2013-02-02 09:02:00,
2013-02-02 04:11:00,19.0,3.0,-100.00,WSW,250,7.0,15.0,49,-99.99,,,-99.99,,2013-02-02 09:11:00,
2013-02-02 04:22:00,19.0,3.0,-100.00,WSW,250,7.0,15.0,49,-99.99,,,-99.99,,2013-02-02 09:22:00,
2013-02-02 04:32:00,18.0,3.0,-100.00,SW,215,5.0,11.0,50,-99.99,,,-99.99,,2013-02-02 09:32:00,
2013-02-02 04:42:00,18.0,3.0,-100.00,SW,225,3.0,10.0,50,-99.99,,,-99.99,,2013-02-02 09:42:00,
2013-02-02 04:52:00,18.0,3.0,-100.00,SW,225,3.0,10.0,50,-99.99,,,-99.99,,2013-02-02 09:52:00,
2013-02-02 05:02:00,18.0,3.0,-100.00,West,275,5.0,11.0,50,-99.99,,,-99.99,,2013-02-02 10:02:00,
2013-02-02 05:11:00,18.0,2.0,-100.00,WSW,245,9.0,14.0,50,-99.99,,,-99.99,,2013-02-02 10:11:00,
2013-02-02 05:21:00,18.0,2.0,-100.00,WSW,245,9.0,14.0,50,-99.99,,,-99.99,,2013-02-02 10:21:00,
2013-02-02 05:32:00,18.0,2.0,-100.00,West,265,3.0,9.0,50,-99.99,,,-99.99,,2013-02-02 10:32:00,
2013-02-02 05:42:00,17.0,2.0,-100.00,West,260,2.0,10.0,51,-99.99,,,-99.99,,2013-02-02 10:42:00,
2013-02-02 05:52:00,17.0,2.0,-100.00,West,260,2.0,10.0,51,-99.99,,,-99.99,,2013-02-02 10:52:00,
2013-02-02 06:02:00,17.0,2.0,-100.00,SW,235,6.0,10.0,51,-99.99,,,-99.99,,2013-02-02 11:02:00,
2013-02-02 06:11:00,17.0,2.0,-100.00,West,260,2.0,7.0,51,-99.99,,,-99.99,,2013-02-02 11:11:00,
2013-02-02 06:22:00,17.0,2.0,-100.00,West,260,2.0,7.0,51,-99.99,,,-99.99,,2013-02-02 11:22:00,
2013-02-02 06:32:00,17.0,2.0,-100.00,SW,235,4.0,13.0,51,-99.99,,,-99.99,,2013-02-02 11:32:00,
2013-02-02 06:42:00,17.0,2.0,-100.00,West,265,6.0,12.0,52,-99.99,,,-99.99,,2013-02-02 11:42:00,
2013-02-02 06:52:00,17.0,2.0,-100.00,West,265,6.0,12.0,52,-99.99,,,-99.99,,2013-02-02 11:52:00,
2013-02-02 07:02:00,17.0,2.0,-100.00,NW,305,5.0,12.0,51,-99.99,,,-99.99,,2013-02-02 12:02:00,
2013-02-02 07:11:00,17.0,2.0,-100.00,West,265,4.0,11.0,52,-99.99,,,-99.99,,2013-02-02 12:11:00,
2013-02-02 07:22:00,17.0,2.0,-100.00,West,265,4.0,11.0,52,-99.99,,,-99.99,,2013-02-02 12:22:00,
2013-02-02 07:32:00,16.0,2.0,-100.00,West,275,6.0,9.0,52,-99.99,,,-99.99,,2013-02-02 12:32:00,
2013-02-02 07:42:00,16.0,2.0,-100.00,SW,215,3.0,6.0,53,-99.99,,,-99.99,,2013-02-02 12:42:00,
2013-02-02 07:52:00,16.0,2.0,-100.00,SW,215,3.0,6.0,53,-99.99,,,-99.99,,2013-02-02 12:52:00,
2013-02-02 08:03:00,16.0,3.0,-100.00,WSW,245,6.0,9.0,54,-99.99,,,-99.99,,2013-02-02 13:03:00,
2013-02-02 08:11:00,17.0,3.0,-100.00,WNW,285,7.0,12.0,54,-99.99,,,-99.99,,2013-02-02 13:11:00,
2013-02-02 08:22:00,17.0,3.0,-100.00,WNW,285,7.0,12.0,54,-99.99,,,-99.99,,2013-02-02 13:22:00,
2013-02-02 08:33:00,18.0,4.0,-100.00,West,265,4.0,9.0,53,-99.99,,,-99.99,,2013-02-02 13:33:00,
2013-02-02 08:42:00,18.0,4.0,-100.00,SW,230,6.0,11.0,52,-99.99,,,-99.99,,2013-02-02 13:42:00,
2013-02-02 08:52:00,18.0,4.0,-100.00,SW,230,6.0,11.0,52,-99.99,,,-99.99,,2013-02-02 13:52:00,
2013-02-02 09:03:00,19.0,4.0,-100.00,West,270,6.0,14.0,51,-99.99,,,-99.99,,2013-02-02 14:03:00,
2013-02-02 09:12:00,20.0,4.0,-100.00,West,270,6.0,16.0,50,-99.99,,,-99.99,,2013-02-02 14:12:00,
2013-02-02 09:22:00,20.0,4.0,-100.00,West,270,6.0,16.0,50,-99.99,,,-99.99,,2013-02-02 14:22:00,
2013-02-02 09:33:00,20.0,4.0,-100.00,SW,225,5.0,10.0,48,-99.99,,,-99.99,,2013-02-02 14:33:00,
2013-02-02 09:42:00,21.0,4.0,-100.00,SW,230,5.0,10.0,47,-99.99,,,-99.99,,2013-02-02 14:42:00,
2013-02-02 09:52:00,21.0,4.0,-100.00,SW,230,5.0,10.0,47,-99.99,,,-99.99,,2013-02-02 14:52:00,
2013-02-02 10:01:00,23.0,4.0,-100.00,WSW,250,6.0,11.0,43,-99.99,,,-99.99,,2013-02-02 15:01:00,
2013-02-02 10:03:00,21.0,4.0,-100.00,West,275,7.0,12.0,47,-99.99,,,-99.99,,2013-02-02 15:03:00,
2013-02-02 10:13:00,21.0,3.0,-100.00,WSW,240,7.0,12.0,45,-99.99,,,-99.99,,2013-02-02 15:13:00,
2013-02-02 10:22:00,21.0,3.0,-100.00,WSW,240,7.0,12.0,45,-99.99,,,-99.99,,2013-02-02 15:22:00,
2013-02-02 10:33:00,23.0,5.0,-100.00,SW,220,4.0,14.0,44,-99.99,,,-99.99,,2013-02-02 15:33:00,
2013-02-02 10:42:00,23.0,4.0,-100.00,WSW,250,6.0,11.0,43,-99.99,,,-99.99,,2013-02-02 15:42:00,
2013-02-02 10:52:00,23.0,4.0,-100.00,WSW,250,6.0,11.0,43,-99.99,,,-99.99,,2013-02-02 15:52:00,
2013-02-02 11:12:00,25.0,4.0,-100.00,WSW,245,4.0,12.0,40,-99.99,,,-99.99,,2013-02-02 16:12:00,
2013-02-02 11:23:00,25.0,4.0,-100.00,WSW,245,4.0,12.0,40,-99.99,,,-99.99,,2013-02-02 16:23:00,
2013-02-02 11:32:00,24.0,4.0,-100.00,SW,235,4.0,10.0,40,-99.99,,,-99.99,,2013-02-02 16:32:00,
2013-02-02 11:42:00,26.0,3.0,-100.00,SW,230,4.0,8.0,38,-99.99,,,-99.99,,2013-02-02 16:42:00,
2013-02-02 11:52:00,27.0,3.0,-100.00,WSW,240,4.0,11.0,36,-99.99,,,-99.99,,2013-02-02 16:52:00,
2013-02-02 12:03:00,27.0,3.0,-100.00,WSW,240,4.0,11.0,36,-99.99,,,-99.99,,2013-02-02 17:03:00,
2013-02-02 12:11:00,26.0,1.0,-100.00,South,185,10.0,16.0,34,-99.99,,,-99.99,,2013-02-02 17:11:00,
2013-02-02 12:23:00,26.0,1.0,-100.00,South,185,10.0,16.0,34,-99.99,,,-99.99,,2013-02-02 17:23:00,
2013-02-02 12:33:00,27.0,2.0,-100.00,South,175,7.0,15.0,33,-99.99,,,-99.99,,2013-02-02 17:33:00,
2013-02-02 12:42:00,26.0,0.0,-100.00,SW,225,10.0,20.0,32,-99.99,,,-99.99,,2013-02-02 17:42:00,
2013-02-02 12:53:00,26.0,0.0,-100.00,SW,235,8.0,17.0,31,-99.99,,,-99.99,,2013-02-02 17:53:00,
2013-02-02 13:03:00,26.0,0.0,-100.00,SW,235,8.0,17.0,31,-99.99,,,-99.99,,2013-02-02 18:03:00,
2013-02-02 13:12:00,27.0,0.0,-100.00,SW,225,9.0,18.0,31,-99.99,,,-99.99,,2013-02-02 18:12:00,
2013-02-02 13:22:00,27.0,0.0,-100.00,SW,225,9.0,18.0,31,-99.99,,,-99.99,,2013-02-02 18:22:00,
2013-02-02 13:32:00,27.0,0.0,-100.00,SSW,210,10.0,16.0,31,-99.99,,,-99.99,,2013-02-02 18:32:00,
2013-02-02 13:42:00,27.0,0.0,-100.00,SW,220,10.0,18.0,30,-99.99,,,-99.99,,2013-02-02 18:42:00,
2013-02-02 13:52:00,27.0,0.0,-100.00,SW,220,10.0,18.0,30,-99.99,,,-99.99,,2013-02-02 18:52:00,
2013-02-02 14:02:00,27.0,0.0,-100.00,SSW,205,8.0,19.0,30,-99.99,,,-99.99,,2013-02-02 19:02:00,
2013-02-02 14:12:00,27.0,0.0,-100.00,SSW,205,8.0,19.0,30,-99.99,,,-99.99,,2013-02-02 19:12:00,
2013-02-02 14:32:00,27.0,-1.0,-100.00,WSW,250,9.0,18.0,29,-99.99,,,-99.99,,2013-02-02 19:32:00,
2013-02-02 14:42:00,27.0,-1.0,-100.00,SW,215,11.0,21.0,29,-99.99,,,-99.99,,2013-02-02 19:42:00,
2013-02-02 14:52:00,27.0,-1.0,-100.00,SW,215,11.0,21.0,29,-99.99,,,-99.99,,2013-02-02 19:52:00,
2013-02-02 15:02:00,27.0,-1.0,-100.00,West,280,10.0,17.0,29,-99.99,,,-99.99,,2013-02-02 20:02:00,
2013-02-02 15:12:00,29.0,1.0,-100.00,West,260,7.0,14.0,29,-99.99,,,-99.99,,2013-02-02 20:12:00,
2013-02-02 15:22:00,29.0,1.0,-100.00,West,260,7.0,14.0,29,-99.99,,,-99.99,,2013-02-02 20:22:00,
2013-02-02 15:32:00,27.0,-1.0,-100.00,SW,235,7.0,15.0,29,-99.99,,,-99.99,,2013-02-02 20:32:00,
2013-02-02 15:42:00,27.0,0.0,-100.00,WSW,245,7.0,20.0,30,-99.99,,,-99.99,,2013-02-02 20:42:00,
2013-02-02 15:52:00,27.0,0.0,-100.00,WSW,245,7.0,20.0,30,-99.99,,,-99.99,,2013-02-02 20:52:00,
2013-02-02 16:02:00,27.0,0.0,-100.00,SW,235,12.0,16.0,31,-99.99,,,-99.99,,2013-02-02 21:02:00,
2013-02-02 16:11:00,27.0,1.0,-100.00,West,280,4.0,11.0,31,-99.99,,,-99.99,,2013-02-02 21:11:00,
2013-02-02 16:22:00,27.0,1.0,-100.00,West,280,4.0,11.0,31,-99.99,,,-99.99,,2013-02-02 21:22:00,
2013-02-02 16:32:00,27.0,1.0,-100.00,West,260,12.0,20.0,32,-99.99,,,-99.99,,2013-02-02 21:32:00,
2013-02-02 16:42:00,27.0,1.0,-100.00,SW,215,6.0,12.0,32,-99.99,,,-99.99,,2013-02-02 21:42:00,
2013-02-02 16:52:00,27.0,1.0,-100.00,SW,215,6.0,12.0,32,-99.99,,,-99.99,,2013-02-02 21:52:00,
2013-02-02 17:03:00,27.0,1.0,-100.00,WSW,250,7.0,14.0,33,-99.99,,,-99.99,,2013-02-02 22:03:00,
2013-02-02 17:12:00,26.0,2.0,-100.00,WSW,245,6.0,12.0,34,-99.99,,,-99.99,,2013-02-02 22:12:00,
2013-02-02 17:22:00,26.0,2.0,-100.00,WSW,245,6.0,12.0,34,-99.99,,,-99.99,,2013-02-02 22:22:00,
2013-02-02 17:32:00,26.0,2.0,-100.00,WSW,245,8.0,14.0,34,-99.99,,,-99.99,,2013-02-02 22:32:00,
2013-02-02 17:42:00,26.0,2.0,-100.00,West,260,6.0,11.0,35,-99.99,,,-99.99,,2013-02-02 22:42:00,
2013-02-02 17:52:00,25.0,3.0,-100.00,SW,215,6.0,13.0,37,-99.99,,,-99.99,,2013-02-02 22:52:00,
2013-02-02 18:02:00,25.0,3.0,-100.00,SW,215,6.0,13.0,37,-99.99,,,-99.99,,2013-02-02 23:02:00,
2013-02-02 18:11:00,25.0,3.0,-100.00,West,265,6.0,12.0,38,-99.99,,,-99.99,,2013-02-02 23:11:00,
2013-02-02 18:22:00,25.0,3.0,-100.00,West,265,6.0,12.0,38,-99.99,,,-99.99,,2013-02-02 23:22:00,
2013-02-02 18:32:00,25.0,4.0,-100.00,WSW,240,9.0,14.0,40,-99.99,,,-99.99,,2013-02-02 23:32:00,
2013-02-02 18:42:00,25.0,4.0,-100.00,WNW,300,1.0,12.0,41,-99.99,,,-99.99,,2013-02-02 23:42:00,
2013-02-02 18:52:00,25.0,4.0,-100.00,WNW,300,1.0,12.0,41,-99.99,,,-99.99,,2013-02-02 23:52:00,
2013-02-02 19:02:00,25.0,5.0,-100.00,West,280,6.0,10.0,42,-99.99,,,-99.99,,2013-02-03 00:02:00,
2013-02-02 19:11:00,24.0,6.0,-100.00,West,280,2.0,10.0,45,-99.99,,,-99.99,,2013-02-03 00:11:00,
2013-02-02 19:22:00,24.0,6.0,-100.00,West,280,2.0,10.0,45,-99.99,,,-99.99,,2013-02-03 00:22:00,
2013-02-02 19:32:00,24.0,7.0,-100.00,NNW,335,3.0,7.0,48,-99.99,,,-99.99,,2013-02-03 00:32:00,
2013-02-02 19:42:00,24.0,9.0,-100.00,WNW,300,5.0,7.0,52,-99.99,,,-99.99,,2013-02-03 00:42:00,
2013-02-02 19:52:00,24.0,9.0,-100.00,WNW,300,5.0,7.0,52,-99.99,,,-99.99,,2013-02-03 00:52:00,
2013-02-02 20:02:00,24.0,10.0,-100.00,West,280,4.0,8.0,56,-99.99,,,-99.99,,2013-02-03 01:02:00,
2013-02-02 20:11:00,23.0,11.0,-100.00,WNW,300,4.0,8.0,59,-99.99,,,-99.99,,2013-02-03 01:11:00,
2013-02-02 20:21:00,23.0,11.0,-100.00,WNW,300,4.0,8.0,59,-99.99,,,-99.99,,2013-02-03 01:21:00,
2013-02-02 20:32:00,23.0,12.0,-100.00,West,265,4.0,7.0,63,-99.99,,,-99.99,,2013-02-03 01:32:00,
2013-02-02 20:42:00,23.0,13.0,-100.00,West,265,2.0,6.0,65,-99.99,,,-99.99,,2013-02-03 01:42:00,
2013-02-02 20:52:00,23.0,13.0,-100.00,West,265,2.0,6.0,65,-99.99,,,-99.99,,2013-02-03 01:52:00,
2013-02-02 21:01:00,23.0,14.0,-100.00,NW,315,2.0,7.0,69,-99.99,,,-99.99,,2013-02-03 02:01:00,
2013-02-02 21:11:00,22.0,15.0,-100.00,WSW,255,3.0,8.0,72,-99.99,,,-99.99,,2013-02-03 02:11:00,
2013-02-02 21:21:00,22.0,15.0,-100.00,WSW,255,3.0,8.0,72,-99.99,,,-99.99,,2013-02-03 02:21:00,
2013-02-02 21:32:00,22.0,16.0,-100.00,West,265,4.0,5.0,75,-99.99,,,-99.99,,2013-02-03 02:32:00,
2013-02-02 21:42:00,22.0,16.0,-100.00,West,265,2.0,6.0,77,-99.99,,,-99.99,,2013-02-03 02:42:00,
2013-02-02 21:52:00,22.0,16.0,-100.00,West,265,2.0,6.0,77,-99.99,,,-99.99,,2013-02-03 02:52:00,
2013-02-02 22:11:00,22.0,17.0,-100.00,West,260,3.0,6.0,80,-99.99,,,-99.99,,2013-02-03 03:11:00,
2013-02-02 22:22:00,22.0,17.0,-100.00,West,260,3.0,6.0,80,-99.99,,,-99.99,,2013-02-03 03:22:00,
2013-02-02 22:32:00,22.0,17.0,-100.00,WNW,285,2.0,5.0,81,-99.99,,,-99.99,,2013-02-03 03:32:00,
2013-02-02 22:42:00,22.0,18.0,-100.00,SW,225,3.0,6.0,82,-99.99,,,-99.99,,2013-02-03 03:42:00,
2013-02-02 22:51:00,22.0,18.0,-100.00,SW,225,3.0,6.0,82,-99.99,,,-99.99,,2013-02-03 03:51:00,
2013-02-02 23:01:00,22.0,18.0,-100.00,WSW,255,3.0,6.0,83,-99.99,,,-99.99,,2013-02-03 04:01:00,
2013-02-02 23:11:00,22.0,18.0,-100.00,WSW,240,1.0,4.0,83,-99.99,,,-99.99,,2013-02-03 04:11:00,
2013-02-02 23:22:00,22.0,18.0,-100.00,WSW,240,1.0,4.0,83,-99.99,,,-99.99,,2013-02-03 04:22:00,
2013-02-02 23:32:00,22.0,18.0,-100.00,South,175,0.0,3.0,84,-99.99,,,-99.99,,2013-02-03 04:32:00,
2013-02-02 23:42:00,22.0,18.0,-100.00,South,175,0.0,3.0,84,-99.99,,,-99.99,,2013-02-03 04:42:00,